Regional Weather Roundup
Issued by NWS

Home | Current Version | Previous Version | Graphics & Text | Print | Product List | Glossary On
Versions: 1 2 3 4 5 6 7 8 9 10 11 12 13 14 15 16 17 18 19 20 21 22 23 24 25 26 27 28 29 30 31 32 33 34 35 36 37 38 39 40 41 42 43 44 45 46 47 48 49 50
000
ASUS43 KIND 021459
RWRIN

WEATHER ROUNDUP FOR INDIANA
NATIONAL WEATHER SERVICE INDIANAPOLIS IN
1100 AM EDT MON MAY 02 2016

NOTE: "FAIR" INDICATES FEW OR NO CLOUDS BELOW 12,000 FEET WITH NO
SIGNIFICANT WEATHER AND/OR OBSTRUCTIONS TO VISIBILITY.

* - STATION DOES NOT REPORT WEATHER SUCH AS PRECIPITATION OR FOG.

+ - STATION NOT QUALITY CONTROLLED BY THE NATIONAL WEATHER SERVICE.
    USE DATA WITH CAUTION...ESPECIALLY DEWPOINT AND RELATIVE
    HUMIDITY OBSERVATIONS.

INZ001>003-010>013-019-020-021600-
NORTHWEST INDIANA

CITY           SKY/WX    TMP DP  RH WIND       PRES   REMARKS
GARY /AIRPORT/ MOSUNNY   50  46  87 MISG      30.06S

$$

LMZ046-743>745-021600-
SOUTHERN LAKE MICHIGAN

STATION/POSITION TIME  TEMP    WIND        PRES    WAVE
                       AIR SEA DIR/SP/G            HT
                 (UTC) (F)     (DEG/KT/KT) (MB)    (FT)
BURNS HARBOR     1423   45      20/ 15/ 16 1017.3F
MICHIGAN CITY    1400   45      20/ 12/ 13   N/A

$$

INZ004-005-014>016-021>024-021600-
NORTH CENTRAL INDIANA

CITY           SKY/WX    TMP DP  RH WIND       PRES   REMARKS
ELKHART        CLOUDY    48  46  93 E7        30.02F
GOSHEN         CLOUDY    47  45  93 NE9       30.01F
SOUTH BEND     CLOUDY    47  43  86 NE9       30.02F

$$

INZ006>009-017-018-025>027-021600-
NORTHEAST INDIANA

CITY           SKY/WX    TMP DP  RH WIND       PRES   REMARKS
ANGOLA *+      CLOUDY    45  36  70 NE6       30.01S
FORT WAYNE     DRIZZLE   50  47  89 NE9       30.00F

$$

INZ028-029-035-036-043>045-051>053-021600-
WEST CENTRAL INDIANA

CITY           SKY/WX    TMP DP  RH WIND       PRES   REMARKS
CRAWFORDSVL +  CLOUDY    49  49 100 NW5       30.01R
GREENCASTLE +  CLOUDY    50  50 100 W5        30.01R
LAFAYETTE      CLOUDY    50  47  89 N12       29.98S
TERRE HAUTE    CLOUDY    52  47  83 N5        30.01R

$$

INZ030>032-037>040-046>048-054>057-064-065-021600-
CENTRAL INDIANA

CITY           SKY/WX    TMP DP  RH WIND       PRES   REMARKS
ANDERSON       CLOUDY    54  54 100 E6        29.99F FOG
COLUMBUS       CLOUDY    55  54  94 W6        30.00F
INDIANAPOLIS   CLOUDY    52  48  86 CALM      29.96F
-EAGLE CREEK   CLOUDY    53  49  86 SE5       29.96F
KOKOMO *+      CLOUDY    52  46  82 NE10      29.97R
SHELBYVILLE    CLOUDY    56  51  84 SW7       29.99R

$$

INZ033-034-041-042-049-050-058-059-021600-
EAST CENTRAL INDIANA

CITY           SKY/WX    TMP DP  RH WIND       PRES   REMARKS
MUNCIE         CLOUDY    54  50  86 SE5       30.00R

$$

INZ060-061-067>069-081>083-085>088-021600-
SOUTHWEST INDIANA

CITY           SKY/WX    TMP DP  RH WIND       PRES   REMARKS
EVANSVILLE     CLOUDY    59  50  72 CALM      30.00S
HUNTINGBURG *+ CLOUDY    57  50  77 CALM      29.99F

$$

INZ062-063-066-070>080-084-089>092-021600-
SOUTH CENTRAL AND SOUTHEAST INDIANA

CITY           SKY/WX    TMP DP  RH WIND       PRES   REMARKS
BLOOMINGTON    CLOUDY    54  47  77 CALM      29.98F
MADISON *+     CLOUDY    59  50  72 W7        30.01F
SEYMOUR +      CLOUDY    59  50  72 CALM      29.98

$$





USA.gov is the U.S. government's official web portal to all federal, state and local government web resources and services.